SR8WXE Weather Reports


Display with metric or nautical units.
time (UTC)temp
F
wind
direction
speed
MPH
gust
MPH
rain 1hr
in
rain 24hr
in
rain mn
in
humidity
%
barometer
mb
20260902125822 74 225 8.0 8.0 0.00 0.00 0.00 41 1019.9
20260902125322 74 244 0.0 6.0 0.00 0.00 0.00 40 1020.0
20260902124821 74 299 3.0 11.0 0.00 0.00 0.00 42 1020.1
20260902124321 74 225 9.0 10.0 0.00 0.00 0.00 40 1020.1
20260902123821 74 320 5.0 7.0 0.00 0.00 0.00 41 1020.2
20260902123321 74 295 1.0 9.0 0.00 0.00 0.00 41 1020.3
20260902122820 74 229 1.0 6.0 0.00 0.00 0.00 41 1020.3
20260902122320 74 305 1.0 4.0 0.00 0.00 0.00 41 1020.4
20260902121820 73 150 0.0 4.0 0.00 0.00 0.00 42 1020.4
20260902121320 73 324 3.0 7.0 0.00 0.00 0.00 42 1020.6
20260902120819 74 288 4.0 10.0 0.00 0.00 0.00 42 1020.7
20260902120319 73 40 0.0 2.0 0.00 0.00 0.00 41 1020.7
20260902115819 73 40 0.0 5.0 0.00 0.00 0.00 42 1020.7
20260902115318 72 7 1.0 5.0 0.00 0.00 0.00 41 1020.8
20260902114818 72 315 1.0 6.0 0.00 0.00 0.00 44 1020.8
20260902114318 71 16 3.0 6.0 0.00 0.00 0.00 44 1020.8
20260902113817 72 247 3.0 5.0 0.00 0.00 0.00 45 1020.9
20260902113317 72 299 0.0 7.0 0.00 0.00 0.00 45 1020.9
20260902112817 72 268 2.0 4.0 0.00 0.00 0.00 46 1020.9
20260902112317 72 281 0.0 5.0 0.00 0.00 0.00 45 1021.0
20260902111816 72 257 3.0 6.0 0.00 0.00 0.00 44 1021.1
20260902111316 72 300 0.0 6.0 0.00 0.00 0.00 46 1021.1
20260902110816 72 251 0.0 4.0 0.00 0.00 0.00 49 1021.2
20260902110316 71 289 0.0 6.0 0.00 0.00 0.00 48 1021.2
20260902105815 70 279 3.0 8.0 0.00 0.00 0.00 48 1021.3
20260902105315 70 316 1.0 7.0 0.00 0.00 0.00 48 1021.4
20260902104815 70 4 3.0 9.0 0.00 0.00 0.00 48 1021.3
20260902104314 70 345 0.0 4.0 0.00 0.00 0.00 50 1021.4
20260902103814 71 306 1.0 7.0 0.00 0.00 0.00 48 1021.4
20260902103314 70 243 6.0 10.0 0.00 0.00 0.00 48 1021.6
20260902102814 70 345 4.0 6.0 0.00 0.00 0.00 48 1021.6
20260902102313 70 206 0.0 8.0 0.00 0.00 0.00 49 1021.6
20260902101813 70 222 1.0 7.0 0.00 0.00 0.00 49 1021.8
20260902101313 70 251 6.0 6.0 0.00 0.00 0.00 49 1021.8
20260902100812 70 293 3.0 7.0 0.00 0.00 0.00 49 1021.9
20260902100312 70 271 1.0 5.0 0.00 0.00 0.00 51 1021.9
20260902095812 69 265 2.0 8.0 0.00 0.00 0.00 50 1022.0
20260902095312 69 317 3.0 9.0 0.00 0.00 0.00 51 1022.1
20260902094811 69 261 5.0 8.0 0.00 0.00 0.00 50 1022.0
20260902094311 69 302 2.0 10.0 0.00 0.00 0.00 49 1022.1
20260902093811 69 257 5.0 11.0 0.00 0.00 0.00 50 1022.1
20260902093310 69 233 5.0 7.0 0.00 0.00 0.00 50 1022.1
20260902092810 69 277 5.0 11.0 0.00 0.00 0.00 49 1022.1
20260902092310 69 330 2.0 9.0 0.00 0.00 0.00 50 1022.1
20260902091810 69 241 7.0 8.0 0.00 0.00 0.00 51 1022.0
20260902091309 69 278 4.0 11.0 0.00 0.00 0.00 49 1022.1
20260902090809 69 241 0.0 7.0 0.00 0.00 0.00 52 1022.1
20260902090309 69 192 3.0 8.0 0.00 0.00 0.00 51 1022.0
20260902085808 69 274 3.0 7.0 0.00 0.00 0.00 52 1022.1
20260902085308 69 25 0.0 6.0 0.00 0.00 0.00 53 1022.1
20260902084808 68 220 2.0 6.0 0.00 0.00 0.00 55 1022.2
20260902084308 68 219 4.0 8.0 0.00 0.00 0.00 53 1022.2
20260902083807 68 305 7.0 7.0 0.00 0.00 0.00 53 1022.2
20260902083307 68 258 5.0 5.0 0.00 0.00 0.00 56 1022.2
20260902082807 68 215 1.0 4.0 0.00 0.00 0.00 57 1022.3
20260902082309 68 246 2.0 5.0 0.00 0.00 0.00 59 1022.3
20260902081806 67 289 2.0 6.0 0.00 0.00 0.00 57 1022.4
20260902081306 67 322 1.0 5.0 0.00 0.00 0.00 59 1022.3
20260902080806 67 240 4.0 6.0 0.00 0.00 0.00 60 1022.3
20260902080305 67 281 3.0 5.0 0.00 0.00 0.00 59 1022.4
20260902075805 66 255 3.0 8.0 0.00 0.00 0.00 60 1022.4
20260902075306 66 237 5.0 6.0 0.00 0.00 0.00 61 1022.3
20260902074804 66 234 1.0 7.0 0.00 0.00 0.00 60 1022.3
20260902074304 66 277 5.0 8.0 0.00 0.00 0.00 61 1022.2
20260902073804 66 189 3.0 7.0 0.00 0.00 0.00 61 1022.3
20260902073304 66 240 1.0 7.0 0.00 0.00 0.00 62 1022.2
20260902072803 65 261 2.0 8.0 0.00 0.00 0.00 63 1022.2
20260902072309 65 240 5.0 7.0 0.00 0.00 0.00 65 1022.2
20260902071803 64 277 1.0 6.0 0.00 0.00 0.00 66 1022.2
20260902071303 63 165 1.0 5.0 0.00 0.00 0.00 67 1022.2
20260902070802 63 244 2.0 5.0 0.00 0.00 0.00 67 1022.2
20260902070302 63 233 4.0 5.0 0.00 0.00 0.00 68 1022.1
20260902065802 62 219 1.0 4.0 0.00 0.00 0.00 69 1022.1
20260902065301 62 236 1.0 4.0 0.00 0.00 0.00 71 1022.0
20260902064801 62 216 2.0 5.0 0.00 0.00 0.00 71 1022.0
20260902064301 61 246 4.0 4.0 0.00 0.00 0.00 71 1022.0
20260902063801 61 132 1.0 3.0 0.00 0.00 0.00 74 1022.0
20260902063300 60 227 1.0 3.0 0.00 0.00 0.00 73 1022.0
20260902062800 60 219 1.0 5.0 0.00 0.00 0.00 74 1022.0
20260902062300 59 229 3.0 4.0 0.00 0.00 0.00 76 1022.0
20260902061759 59 216 3.0 4.0 0.00 0.00 0.00 77 1022.0
20260902061259 59 182 0.0 4.0 0.00 0.00 0.00 78 1022.1
20260902060759 58 246 0.0 5.0 0.00 0.00 0.00 79 1022.1
20260902060259 58 232 2.0 4.0 0.00 0.00 0.00 80 1022.1
20260902055758 57 225 2.0 4.0 0.00 0.00 0.00 81 1022.1
20260902055258 57 255 3.0 5.0 0.00 0.00 0.00 81 1022.0
20260902054758 57 222 4.0 5.0 0.00 0.00 0.00 81 1022.0
20260902054257 57 243 3.0 4.0 0.00 0.00 0.00 81 1022.0
20260902053757 57 213 2.0 5.0 0.00 0.00 0.00 81 1022.0
20260902053257 57 184 0.0 2.0 0.00 0.00 0.00 81 1022.1
20260902052757 57 184 2.0 4.0 0.00 0.00 0.00 81 1022.0
20260902052256 57 229 4.0 4.0 0.00 0.00 0.00 81 1022.0
20260902051756 57 205 3.0 4.0 0.00 0.00 0.00 81 1022.0
20260902051256 56 209 3.0 4.0 0.00 0.00 0.00 82 1021.9
20260902050755 56 261 2.0 6.0 0.00 0.00 0.00 82 1021.8
20260902050255 56 250 3.0 5.0 0.00 0.00 0.00 83 1021.8
20260902045755 56 230 3.0 7.0 0.00 0.00 0.00 83 1021.7
20260902045255 55 223 1.0 6.0 0.00 0.00 0.00 84 1021.7
20260902044755 55 223 2.0 5.0 0.00 0.00 0.00 84 1021.7
20260902044254 55 244 2.0 7.0 0.00 0.00 0.00 85 1021.7
20260902043754 55 241 2.0 6.0 0.00 0.00 0.00 85 1021.6
20260902043254 55 239 3.0 5.0 0.00 0.00 0.00 86 1021.7
20260902042753 54 222 3.0 9.0 0.00 0.00 0.00 86 1021.6
20260902042253 55 227 3.0 5.0 0.00 0.00 0.00 86 1021.6
20260902041753 54 229 3.0 4.0 0.00 0.00 0.00 87 1021.6
20260902041252 54 244 3.0 4.0 0.00 0.00 0.00 87 1021.6
20260902040752 54 254 3.0 5.0 0.00 0.00 0.00 87 1021.6
20260902040252 54 203 2.0 4.0 0.00 0.00 0.00 87 1021.6
20260902035752 54 236 2.0 5.0 0.00 0.00 0.00 87 1021.6
20260902035251 54 227 2.0 4.0 0.00 0.00 0.00 87 1021.4
20260902034751 54 217 3.0 4.0 0.00 0.00 0.00 87 1021.4
20260902034251 54 226 4.0 5.0 0.00 0.00 0.00 87 1021.6
20260902033750 54 261 2.0 5.0 0.00 0.00 0.00 87 1021.4
20260902033250 54 237 2.0 4.0 0.00 0.00 0.00 86 1021.4
20260902032750 54 230 4.0 4.0 0.00 0.00 0.00 86 1021.4
20260902032250 54 213 0.0 5.0 0.00 0.00 0.00 86 1021.4
20260902031749 54 222 0.0 5.0 0.00 0.00 0.00 86 1021.4
20260902031249 54 220 2.0 5.0 0.00 0.00 0.00 86 1021.4
20260902030749 54 222 2.0 6.0 0.00 0.00 0.00 86 1021.4
20260902030248 54 220 4.0 5.0 0.00 0.00 0.00 86 1021.4
20260902025748 54 241 0.0 4.0 0.00 0.00 0.00 87 1021.4
20260902025248 54 253 3.0 4.0 0.00 0.00 0.00 87 1021.3
20260902024748 54 226 2.0 5.0 0.00 0.00 0.00 87 1021.3
20260902024247 54 275 2.0 4.0 0.00 0.00 0.00 86 1021.3
20260902023747 54 240 3.0 3.0 0.00 0.00 0.00 86 1021.3
20260902023247 55 220 2.0 4.0 0.00 0.00 0.00 86 1021.3
20260902022747 55 254 2.0 5.0 0.00 0.00 0.00 86 1021.3
20260902022246 55 246 0.0 4.0 0.00 0.00 0.00 86 1021.3
20260902021746 55 246 1.0 4.0 0.00 0.00 0.00 86 1021.3
20260902021246 55 243 0.0 0.0 0.00 0.00 0.00 86 1021.3
20260902020745 55 243 0.0 0.0 0.00 0.00 0.00 86 1021.3
20260902020245 55 243 0.0 0.0 0.00 0.00 0.00 86 1021.3
20260902015745 55 243 0.0 0.0 0.00 0.00 0.00 86 1021.3
20260902015244 55 243 0.0 0.0 0.00 0.00 0.00 86 1021.3
20260902014744 55 243 0.0 0.0 0.00 0.00 0.00 86 1021.2
20260902014244 55 243 0.0 0.0 0.00 0.00 0.00 86 1021.3
20260902013744 55 243 0.0 0.0 0.00 0.00 0.00 86 1021.3
20260902013243 55 243 0.0 0.0 0.00 0.00 0.00 86 1021.4
20260902012743 55 243 0.0 0.0 0.00 0.00 0.00 86 1021.4
20260902012243 55 243 0.0 2.0 0.00 0.00 0.00 86 1021.4
20260902011742 55 215 2.0 4.0 0.00 0.00 0.00 86 1021.3
20260902011242 55 237 1.0 4.0 0.00 0.00 0.00 86 1021.4
20260902010742 55 220 2.0 3.0 0.00 0.00 0.00 85 1021.4
20260902010242 55 220 2.0 4.0 0.00 0.00 0.00 85 1021.3
20260902005741 55 233 2.0 3.0 0.00 0.00 0.00 85 1021.3
20260902005241 55 237 1.0 4.0 0.00 0.00 0.00 85 1021.2
20260902004741 56 241 2.0 3.0 0.00 0.00 0.00 85 1021.2
20260902004241 56 241 1.0 3.0 0.00 0.00 0.00 85 1021.2
20260902003740 56 239 2.0 3.0 0.00 0.00 0.00 84 1021.1
20260902003240 56 253 0.0 3.0 0.00 0.00 0.00 84 1021.1
20260902002740 56 237 0.0 2.0 0.00 0.00 0.00 84 1021.1
20260902002239 56 205 0.0 3.0 0.00 0.00 0.00 84 1021.0
20260902001739 56 206 1.0 3.0 0.00 0.00 0.00 84 1021.1
20260902001239 56 246 0.0 4.0 0.00 0.00 0.00 84 1021.1
20260902000739 56 222 1.0 3.0 0.00 0.00 0.00 84 1021.1
20260902000241 56 230 1.0 3.0 0.00 0.00 0.00 84 1021.1
20260901235738 56 223 1.0 4.0 0.00 0.00 0.00 84 1021.1
20260901235238 56 258 4.0 5.0 0.00 0.00 0.00 84 1021.1
20260901234737 56 253 2.0 2.0 0.00 0.00 0.00 84 1021.0
20260901234237 56 226 0.0 0.0 0.00 0.00 0.00 83 1021.0
20260901233737 56 226 0.0 3.0 0.00 0.00 0.00 83 1021.0
20260901233237 57 246 3.0 4.0 0.00 0.00 0.00 83 1020.9
20260901232736 56 236 2.0 2.0 0.00 0.00 0.00 83 1020.8
20260901232236 56 220 0.0 0.0 0.00 0.00 0.00 83 1020.8
20260901231736 57 220 0.0 0.0 0.00 0.00 0.00 83 1020.8
20260901231235 57 220 0.0 3.0 0.00 0.00 0.00 83 1020.7
20260901230735 57 227 2.0 3.0 0.00 0.00 0.00 83 1020.7
20260901230235 57 248 2.0 3.0 0.00 0.00 0.00 83 1020.7
20260901225735 57 210 1.0 3.0 0.00 0.00 0.00 83 1020.7
20260901225234 57 244 3.0 4.0 0.00 0.00 0.00 83 1020.6
20260901224734 57 213 2.0 4.0 0.00 0.00 0.00 84 1020.6
20260901224234 56 226 0.0 1.0 0.00 0.00 0.00 84 1020.6
20260901223733 57 244 1.0 1.0 0.00 0.00 0.00 84 1020.6
20260901223233 57 226 0.0 3.0 0.00 0.00 0.00 84 1020.6
20260901222733 56 251 1.0 2.0 0.00 0.00 0.00 85 1020.7
20260901222233 56 226 2.0 5.0 0.00 0.00 0.00 85 1020.6
20260901221732 56 237 1.0 4.0 0.00 0.00 0.00 85 1020.6
20260901221232 56 233 1.0 3.0 0.00 0.00 0.00 85 1020.7
20260901220732 56 233 0.0 1.0 0.00 0.00 0.00 84 1020.6
20260901220231 56 215 0.0 0.0 0.00 0.00 0.00 84 1020.6
20260901215731 57 215 0.0 0.0 0.00 0.00 0.00 83 1020.5
20260901215231 56 215 0.0 0.0 0.00 0.00 0.00 83 1020.5
20260901214731 56 215 0.0 0.0 0.00 0.00 0.00 83 1020.6
20260901214230 57 215 0.0 0.0 0.00 0.00 0.00 83 1020.6
20260901213730 57 215 0.0 0.0 0.00 0.00 0.00 83 1020.5
20260901213230 57 215 0.0 0.0 0.00 0.00 0.00 82 1020.5
20260901212729 57 215 0.0 0.0 0.00 0.00 0.00 82 1020.4
20260901212229 57 215 0.0 0.0 0.00 0.00 0.00 82 1020.4
20260901211729 57 215 0.0 0.0 0.00 0.00 0.00 82 1020.4
20260901211229 57 215 0.0 1.0 0.00 0.00 0.00 82 1020.4
20260901210728 57 208 0.0 1.0 0.00 0.00 0.00 83 1020.3
20260901210228 57 312 0.0 0.0 0.00 0.00 0.00 82 1020.3
20260901205728 57 312 0.0 0.0 0.00 0.00 0.00 82 1020.2
20260901205227 57 312 0.0 0.0 0.00 0.00 0.00 81 1020.2
20260901204727 57 312 0.0 0.0 0.00 0.00 0.00 81 1020.2
20260901204227 58 312 0.0 0.0 0.00 0.00 0.00 81 1020.1
20260901203727 58 312 0.0 0.0 0.00 0.00 0.00 81 1020.1
20260901203226 58 312 0.0 0.0 0.00 0.00 0.00 81 1020.1
20260901202726 58 312 0.0 0.0 0.00 0.00 0.00 81 1020.1
20260901202226 57 312 0.0 0.0 0.00 0.00 0.00 82 1020.1
20260901201725 57 312 0.0 0.0 0.00 0.00 0.00 83 1020.1
20260901201225 56 312 0.0 0.0 0.00 0.00 0.00 84 1020.0
20260901200725 56 312 0.0 0.0 0.00 0.00 0.00 83 1020.0
20260901200225 56 312 0.0 0.0 0.00 0.00 0.00 83 1020.0
20260901195724 56 312 0.0 0.0 0.00 0.00 0.00 83 1019.9
20260901195224 57 312 0.0 0.0 0.00 0.00 0.00 82 1020.0
20260901194724 57 312 0.0 0.0 0.00 0.00 0.00 82 1019.9
20260901194224 57 312 0.0 0.0 0.00 0.00 0.00 83 1019.9
20260901193723 57 312 0.0 0.0 0.00 0.00 0.00 83 1019.9
20260901193223 57 312 0.0 0.0 0.00 0.00 0.00 82 1019.9
20260901192723 57 312 0.0 0.0 0.00 0.00 0.00 81 1019.8
20260901192222 57 312 0.0 0.0 0.00 0.00 0.00 81 1019.8
20260901191722 57 312 0.0 0.0 0.00 0.00 0.00 81 1019.9
20260901191222 57 312 0.0 0.0 0.00 0.00 0.00 80 1019.8
20260901190722 57 312 0.0 0.0 0.00 0.00 0.00 80 1019.8
20260901190221 57 312 0.0 0.0 0.00 0.00 0.00 79 1019.7
20260901185721 58 312 0.0 0.0 0.00 0.00 0.00 79 1019.8
20260901185221 58 312 0.0 0.0 0.00 0.00 0.00 78 1019.8
20260901184720 58 312 0.0 0.0 0.00 0.00 0.00 77 1019.7
20260901184220 58 312 0.0 0.0 0.00 0.00 0.00 77 1019.7
20260901183720 58 312 0.0 0.0 0.00 0.00 0.00 76 1019.6
20260901183220 59 312 0.0 0.0 0.00 0.00 0.00 75 1019.6
20260901182719 59 312 0.0 0.0 0.00 0.00 0.00 75 1019.5
20260901182219 59 312 0.0 0.0 0.00 0.00 0.00 74 1019.5
20260901181719 60 312 0.0 0.0 0.00 0.00 0.00 73 1019.5
20260901181218 60 312 0.0 0.0 0.00 0.00 0.00 72 1019.5
20260901180718 60 312 0.0 0.0 0.00 0.00 0.00 71 1019.4
20260901180218 61 312 0.0 0.0 0.00 0.00 0.00 70 1019.3
20260901175718 61 312 0.0 0.0 0.00 0.00 0.00 69 1019.2
20260901175217 62 312 0.0 0.0 0.00 0.00 0.00 68 1019.2
20260901174717 62 312 0.0 0.0 0.00 0.00 0.00 66 1019.1
20260901174217 63 312 0.0 0.0 0.00 0.00 0.00 64 1019.0
20260901173716 63 312 0.0 0.0 0.00 0.00 0.00 63 1019.0
20260901173216 64 312 0.0 0.0 0.00 0.00 0.00 61 1019.0
20260901172716 65 312 0.0 0.0 0.00 0.00 0.00 58 1019.0
20260901172216 66 312 0.0 0.0 0.00 0.00 0.00 54 1018.9
20260901171715 67 312 0.0 0.0 0.00 0.00 0.00 51 1018.8
20260901171215 67 312 0.0 2.0 0.00 0.00 0.00 50 1018.8
20260901170715 67 303 0.0 4.0 0.00 0.00 0.00 50 1018.7
20260901170214 68 305 2.0 2.0 0.00 0.00 0.00 49 1018.7
20260901165714 68 271 0.0 3.0 0.00 0.00 0.00 49 1018.7
20260901165214 68 320 2.0 5.0 0.00 0.00 0.00 48 1018.7
20260901164714 69 251 0.0 3.0 0.00 0.00 0.00 47 1018.7
20260901164213 69 324 0.0 6.0 0.00 0.00 0.00 47 1018.6
20260901163713 69 320 0.0 4.0 0.00 0.00 0.00 46 1018.5
20260901163213 69 303 4.0 8.0 0.00 0.00 0.00 45 1018.5
20260901162712 70 279 0.0 7.0 0.00 0.00 0.00 45 1018.4
20260901162212 70 250 1.0 7.0 0.00 0.00 0.00 44 1018.3
20260901161712 70 258 3.0 11.0 0.00 0.00 0.00 43 1018.4
20260901161212 70 295 2.0 11.0 0.00 0.00 0.00 44 1018.3
20260901160711 70 337 2.0 7.0 0.00 0.00 0.00 43 1018.2
20260901160211 71 345 3.0 8.0 0.00 0.00 0.00 43 1018.2
20260901155711 71 357 0.0 7.0 0.00 0.00 0.00 44 1018.2
20260901155211 71 277 0.0 8.0 0.00 0.00 0.00 43 1018.2
20260901154710 71 258 0.0 5.0 0.00 0.00 0.00 43 1018.2
20260901154210 71 219 0.0 8.0 0.00 0.00 0.00 43 1018.1
20260901153710 71 277 3.0 12.0 0.00 0.00 0.00 41 1018.1
20260901153209 72 171 0.0 0.0 0.00 0.00 0.00 42 1018.1
20260901152709 72 171 0.0 0.0 0.00 0.00 0.00 42 1018.1
20260901152209 72 171 0.0 8.0 0.00 0.00 0.00 41 1017.9
20260901151709 72 286 1.0 10.0 0.00 0.00 0.00 40 1017.9
20260901151208 72 358 0.0 4.0 0.00 0.00 0.00 40 1017.9
20260901150708 72 341 0.0 0.0 0.00 0.00 0.00 42 1017.9
20260901150208 72 341 0.0 0.0 0.00 0.00 0.00 42 1017.9
20260901145707 72 341 0.0 0.0 0.00 0.00 0.00 41 1017.8
20260901145207 72 341 0.0 10.0 0.00 0.00 0.00 41 1017.8
20260901144707 72 320 0.0 10.0 0.00 0.00 0.00 41 1017.8
20260901144207 72 317 5.0 10.0 0.00 0.00 0.00 42 1017.8
20260901143706 72 264 9.0 10.0 0.00 0.00 0.00 41 1017.8
20260901143206 72 305 4.0 10.0 0.00 0.00 0.00 41 1017.7
20260901142706 72 315 5.0 13.0 0.00 0.00 0.00 43 1017.8
20260901142205 72 300 1.0 10.0 0.00 0.00 0.00 41 1017.8
20260901141705 73 288 6.0 12.0 0.00 0.00 0.00 41 1017.8
20260901141205 73 251 2.0 13.0 0.00 0.00 0.00 40 1017.9
20260901140705 73 270 1.0 10.0 0.00 0.00 0.00 42 1017.8
20260901140204 72 25 1.0 13.0 0.00 0.00 0.00 42 1017.8
20260901135704 72 341 5.0 11.0 0.00 0.00 0.00 43 1017.7
20260901135204 73 336 9.0 15.0 0.00 0.00 0.00 42 1017.8
20260901134703 73 257 2.0 11.0 0.00 0.00 0.00 41 1017.8
20260901134203 73 213 1.0 10.0 0.00 0.00 0.00 41 1017.8
20260901133703 72 270 5.0 17.0 0.00 0.00 0.00 40 1017.8
20260901133203 73 270 8.0 14.0 0.00 0.00 0.00 41 1017.8
20260901132702 73 286 4.0 15.0 0.00 0.00 0.00 40 1017.8
20260901132202 73 247 4.0 14.0 0.00 0.00 0.00 40 1017.9
20260901131702 73 306 4.0 11.0 0.00 0.00 0.00 41 1017.8
20260901131201 74 288 2.0 12.0 0.00 0.00 0.00 41 1017.7
20260901130701 73 275 1.0 10.0 0.00 0.00 0.00 42 1017.7
20260901130201 73 251 3.0 10.0 0.00 0.00 0.00 43 1017.6